Regional Weather Roundup
Issued by NWS

Home | Current Version | Previous Version | Graphics & Text | Print | Product List | Glossary On
Versions: 1 2 3 4 5 6 7 8 9 10 11 12 13 14 15 16 17 18 19 20 21 22 23 24 25 26 27 28 29 30 31 32 33 34 35 36 37 38 39 40 41 42 43 44 45 46 47 48 49 50
000
ASUS43 KLOT 231710
RWRIL

ILLINOIS REGIONAL WEATHER ROUNDUP
NATIONAL WEATHER SERVICE CHICAGO/ROMEOVILLE IL
1100 AM CST SUN NOV 23 2014

NOTE: "FAIR" INDICATES FEW OR NO CLOUDS BELOW 12,000 FEET WITH NO
SIGNIFICANT WEATHER AND/OR OBSTRUCTIONS TO VISIBILITY.

* THESE STATIONS ARE NOT UNDER NWS QUALITY CONTROL. THEY ALSO MAY NOT
  REPORT WEATHER SUCH AS PRECIPITATION OR FOG.

ILZ001-002-007-009-015-016-024-231800-
NORTHWEST ILLINOIS

CITY           SKY/WX    TMP DP  RH WIND       PRES   REMARKS
MOLINE         LGT RAIN  51  48  89 S14       29.55F FOG
STERLING*      CLOUDY    48  45  87 S9G16     29.60F
SAVANNA*       RAIN      49  47  93 S6        29.59F
$$

ILZ003-004-008-010-011-017-018-231800-
NORTH CENTRAL ILLINOIS

CITY           SKY/WX    TMP DP  RH WIND       PRES   REMARKS
ROCKFORD       LGT RAIN  49  46  90 S12       29.63F FOG
FREEPORT*      RAIN      47  46  97 SE13      29.62F
ROCHELLE*      RAIN      47  46  93 SE16      29.63F
DE KALB*       CLOUDY    47  45  93 SE15      29.65F
PERU*          CLOUDY    51  46  84 S9        29.62F
$$

ILZ005-006-012>014-019>023-231800-
NORTHEAST ILLINOIS

CITY           SKY/WX    TMP DP  RH WIND       PRES   REMARKS
CHICAGO-OHARE  CLOUDY    51  45  79 S14       29.68F
CHICAGO-MIDWAY LGT RAIN  53  46  77 S12       29.69F
AURORA         LGT RAIN  50  44  80 SE13      29.65F
LANSING*       LGT RAIN  51  46  83 S10       29.71F
JOLIET*        DRIZZLE   50  45  82 S9        29.67F
WAUKEGAN       CLOUDY    50  45  83 S12       29.67F
DUPAGE AIRPORT CLOUDY    50  46  86 S13       29.66F
KANKAKEE*      LGT RAIN  51  47  83 SE10      29.69F
WHEELING       CLOUDY    50  46  86 S13       29.69F
MORRIS*        CLOUDY    50  46  88 S9        29.65F
ROMEOVILLE*    DRIZZLE   50  45  84 S9        29.67F
NORTHERLY ISL    N/A     53  45  74 S14         N/A
$$

LMZ740>746-231800-
SOUTHERN LAKE MICHIGAN

STATION/POSITION SKY/WX   TEMP    WIND        PRES    VSBY  WAVE
                          AIR SEA DIR/SP/G                  HT/PER
                          (F)     (DEG/KT/KT) (MB)    (MI)  (FT/S)
SOUTHERN BUOY              45 43  160/ 16/ 17 1006.1F         3/ 4
WAUKEGAN HARBOR            46     190/ 16/ 17   N/A
HARRISON CRIB              50     180/ 17/ 18   N/A
BURNHAM HARBOR             53     190/ 14/ 16   N/A
CALUMET HARBOR             52     170/ 11/ 15 1004.7F
MICHIGAN CITY              51     150/ 13/ 18   N/A
$$

ILZ025>027-034>036-040-047-049-050-058-095>099-231800-
WEST-CENTRAL ILLINOIS

CITY           SKY/WX    TMP DP  RH WIND       PRES   REMARKS
QUINCY         RAIN      52  50  93 S13       29.54F FOG
GALESBURG*     LGT RAIN  49  47  94 SE6       29.57F
MACOMB*        LGT RAIN  51  50  96 S14       29.59F
JACKSONVILLE*  LGT RAIN  55  52  88 SE15      29.57F
PITTSFIELD*    CLOUDY    53  50  91 SE12      29.57F
$$

ILZ028>032-037-038-041>044-048-051>054-059>061-231800-
CENTRAL ILLINOIS

CITY           SKY/WX    TMP DP  RH WIND       PRES   REMARKS
PONTIAC        CLOUDY    51  47  87 S20       29.65F
BLOOMINGTON    LGT RAIN  50  48  92 S21       29.65F
DECATUR        CLOUDY    54  47  77 S15       29.66F
PEORIA         CLOUDY    54  47  77 S12       29.60F
LACON*         CLOUDY    53  47  78 S12       29.60F
LINCOLN*       LGT RAIN  53  47  81 SE15      29.63F
SPRINGFIELD    LGT RAIN  53  47  79 SE16      29.62F
TAYLORVILLE    CLOUDY    52  48  87 SE14G20   29.64F
$$

ILZ033-039-045-046-055>057-062-063-231800-
EAST-CENTRAL ILLINOIS

CITY           SKY/WX    TMP DP  RH WIND       PRES   REMARKS
CHAMPAIGN      CLOUDY    54  48  80 SE16      29.68F
DANVILLE*      CLOUDY    55  47  77 S13       29.68F
RANTOUL*       CLOUDY    55  50  83 SE13      29.68F
MATTOON        LGT RAIN  52  46  80 S20G31    29.68F
PARIS*         CLOUDY    52  49  91 SE15      29.72F FOG
$$

ILZ079-100>102-231800-
SOUTHWEST ILLINOIS

CITY           SKY/WX    TMP DP  RH WIND       PRES   REMARKS
BELLEVILLE     LGT RAIN  55  54  99 SE14      29.60F
CAHOKIA*       LGT RAIN  56  53  90 SE15G21   29.58F
SPARTA*        DRIZZLE   54  51  91 SE10      29.63F
$$

ILZ064>066-069>071-074>076-080>082-084>086-088>090-092>094-231800-
SOUTH-CENTRAL ILLINOIS

CITY           SKY/WX    TMP DP  RH WIND       PRES   REMARKS
CARBONDALE     LGT RAIN  56  50  80 SE10      29.64F
CAIRO*         RAIN      58  53  82 SE10      29.64F
EFFINGHAM*     CLOUDY    53  44  70 SE14      29.68F
MARION         CLOUDY    57  52  82 SE17      29.67F
MT. VERNON     CLOUDY    52  45  76 E6        29.67F
CENTRALIA*     LGT RAIN  51  46  83 SE13G18   29.65F
SALEM*         LGT RAIN  53  48  83 SE9       29.67F
METROPOLIS*    CLOUDY    58  51  80 SE5       29.65F
$$

ILZ067-068-072-073-078-083-087-091-231800-
SOUTHEAST ILLINOIS

CITY           SKY/WX    TMP DP  RH WIND       PRES   REMARKS
LAWRENCEVILLE  CLOUDY    52  49  89 SE14      29.72F
FLORA*         CLOUDY    51  46  84 SE8       29.70F
FAIRFIELD*     CLOUDY    54  47  76 SE14      29.68F
HARRISBURG*    CLOUDY    55  49  79 SE12      29.69F
ROBINSON*      CLOUDY    51  49  93 SE15      29.73F FOG
CARMI*         CLOUDY    54  50  85 SE10      29.69F
$$

ABBREVIATIONS USED IN REMARKS
   TC - TEMPERATURE IN CELSIUS
  WCI - WIND CHILL INDEX
   HX - HEAT INDEX
  VSB - VISIBILITY
$$



USA.gov is the U.S. government's official web portal to all federal, state and local government web resources and services.